THOR ABLESTAR DEB, 561

Orbit data source: Space-Track

THOR ABLESTAR DEB, 561 is space debris in LEO originally from a launch on Thu, 29 Jun 1961 UTC launched from the Air Force Eastern Test Range (AFETR). Debris objects in space refer to the collection of defunct objects orbiting the Earth. Examples of debris include non-operational satellites, rocket bodies, and fragments generated from explosions, collisions, or faulty payload assembly.

Loading next visibility...
Identifier
561, 1961-015GT
Orbit
LEO
Country
Flag of USUS
Related business
Manufacturer
Unknown
Mission
Spacecraft
Bus & Motor
Unknown
Mass
Unknown
Launch date (UTC)
1961-06-29 (64 years ago)
Launch vehicle
Unknown
Launch site
Air Force Eastern Test Range (AFETR)
Object type
Payload
Rocket body
Debris
Shape & HBR
Unknown shape, 0.1 m
Radar Cross Section
Medium (>0.1 m² and <1 m²)

Expand to show TLE details & history
Last TLE update: 10 hours ago

TLE from 10 hours ago
0 THOR ABLESTAR DEB
1 00561U 61015GT  25353.28862023  .00001027  00000-0  39961-2 0  9994
2 00561  67.7553 300.6447 0623262  60.8028  85.5677 12.41355906918794
Epoch: 2025-12-19T06:55Z
TLE epoch observation values (Epoch: 2025-12-19T06:55:36.787Z)
Latitude
24.41384°
Longitude
-82.03666°
Altitude
1,495.56 km
Speed
7.122 km/s
True Right ascension
07h 19m 59s
True Declination
24° 17' 48"
Sunlit
Object was in full shadow at epoch
Visualization orbit readout
Latitude
Unknown
Longitude
Unknown
Altitude
Unknown
Speed
Unknown
Apparent Right ascension
Unknown
Apparent Declination
Unknown
Sunlit
N/A
Visualization observer readout
Local Sidereal Time
15:58:41
Azimuth
Unknown
Elevation
Unknown
Doppler factor
Unknown
Orbital elements
Apogee altitude
1,990.231 km
Perigee altitude
1,008.295 km
Semi-major axis
7,877.4 km
Eccentricity
0.06233
Inclination
67.7553°
RAAN
300.6447°
Arg. of periapsis
60.8028°
True anomaly
92.71294°
Mean anomaly
85.5677°
Eccentric anomaly
89.13832°
Mean motion
3.10434 °/min
Orbital period
115.97 mins
BSTAR
0.0039961

Documentation

Showing up to 5 results
|